Preview of NWS' New Version of Forecast
This preview is not operational and should not be used for support decisions.

Regional Weather Roundup (RWR)

Issued by National Weather Service (NWS)

                            
000
ASUS45 KABQ 191110
RWRNM 
NEW MEXICO REGIONAL WEATHER ROUNDUP
NATIONAL WEATHER SERVICE ALBUQUERQUE NM
500 AM MDT FRI APR 19 2019

NOTE: "FAIR" MEANS FEW OR NO CLOUDS BELOW 12,000 FEET AGL WITH NO
       SIGNIFICANT WEATHER OR OBSTRUCTIONS TO VISION.

      THIS PRODUCT IS RELEASED AS TWO VERSIONS.  ONE VERSION NEAR
      THE TOP OF THE HOUR CONTAINING PRELIMINARY DATA FROM ALBUQUERQUE
      AND OTHER STATIONS.  A FINAL VERSION WITH ADDITIONAL DATA IS 
      ISSUED ABOUT 10 MINUTES AFTER THE HOUR.
 
NMZ501-503-504-510>518-191200-
NORTHWEST PLATEAU/NORTHCENTRAL MOUNTAINS
  
CITY           SKY/WX    TMP DP  RH WIND       PRES   REMARKS
FARMINGTON     FAIR      38  19  46 NE3       30.22R                  
SANTA FE       FAIR      39  32  76 SE6       30.27S WCI  35          

$$
NMZ402-403-502-505>509-191200-
WESTCENTRAL MOUNTAINS/SOUTHWEST MOUNTAINS
  
CITY           SKY/WX    TMP DP  RH WIND       PRES   REMARKS
GALLUP         FAIR      32  25  75 CALM      30.30R                  
GRANTS         FAIR      34  26  71 W5        30.30S WCI  30          

$$
NMZ407-409-411-412-191200-
SOUTHERN DESERTS
  
CITY           SKY/WX    TMP DP  RH WIND       PRES   REMARKS
DEMING         FAIR      45  34  65 SW5       30.17R                  
HOLLOMAN AFB   FAIR      45  32  60 E3        30.18R                  
ALAMOGORDO     FAIR      46  36  66 S5        30.16S                  
T OR C         FAIR      52  22  30 NW9       30.19R                  

$$
NMZ519>523-191200-
CENTRAL VALLEYS/CENTRAL HIGHLANDS
  
CITY           SKY/WX    TMP DP  RH WIND       PRES   REMARKS
ALBUQUERQUE    FAIR      51  33  50 N7        30.24R                  
CLINES CORNERS FAIR      34  27  75 SW6       30.30S WCI  29          
BELEN          NOT AVBL                                               
SOCORRO        NOT AVBL                                               

$$
NMZ524>526-539-540-191200-
SOUTHCENTRAL MOUNTAINS
  
CITY           SKY/WX    TMP DP  RH WIND       PRES   REMARKS
RUIDOSO        FAIR      37  28  70 S6        30.33S WCI  33          

$$
NMZ527>531-191200-
NORTHEAST HIGHLANDS/NORTHEAST PLAINS
  
CITY           SKY/WX    TMP DP  RH WIND       PRES   REMARKS
LAS VEGAS      FAIR      34  31  88 W7        30.26F WCI  28          
RATON          FAIR      33  27  78 NE6       30.23S WCI  28          
CLAYTON        NOT AVBL                                               

$$
NMZ532>537-191200-
EASTCENTRAL PLAINS
  
CITY           SKY/WX    TMP DP  RH WIND       PRES   REMARKS
TUCUMCARI      FAIR      39  34  82 NW7       30.21R WCI  34          
CANNON AFB     FAIR      39  32  75 NW7       30.24S WCI  34          
CLOVIS AIRPORT NOT AVBL                                               

$$
NMZ028-029-538-191200-
SOUTHEAST PLAINS
  
CITY           SKY/WX    TMP DP  RH WIND       PRES   REMARKS
ROSWELL        FAIR      48  33  56 W6        30.24S                  
ARTESIA        FAIR      46  32  57 W10       30.26R                  
CARLSBAD       FAIR      50  32  50 W9        30.23R                  
HOBBS          FAIR      39  32  75 N8        30.23R WCI  34          


$$